WESTFORD NEEDLES, 2381

Orbit data source: Space-Track

WESTFORD NEEDLES, 2381 is space debris in LEO originally from a launch on Thu, 09 May 1963 UTC launched from the Air Force Western Test Range (AFWTR). Debris objects in space refer to the collection of defunct objects orbiting the Earth. Examples of debris include non-operational satellites, rocket bodies, and fragments generated from explosions, collisions, or faulty payload assembly.

Loading next visibility...
Identifier
2381, 1963-014AB
Orbit
LEO
Country
Flag of USUS
Related business
Manufacturer
Unknown
Mission
Spacecraft
Bus & Motor
Unknown
Mass
Unknown
Launch date (UTC)
1963-05-09 (62 years ago)
Launch vehicle
Unknown
Launch site
Air Force Western Test Range (AFWTR)
Object type
Payload
Rocket body
Debris
Shape & HBR
Unknown
Radar Cross Section
Medium (>0.1 m² and <1 m²)

Expand to show TLE details & history
Last TLE update: 21 hours ago

TLE from 21 hours ago
0 WESTFORD NEEDLES
1 02381U 63014AB  25260.07050857 -.00000014  00000-0 -74289-2 0  9994
2 02381  87.2913 124.0726 0236352 167.3366 193.3562  8.67462656367589
Epoch: 2025-09-17T01:41Z
TLE epoch observation values (Epoch: 2025-09-17T01:41:31.94Z)
Latitude
-0.00004°
Longitude
102.43778°
Altitude
3,859.857 km
Speed
6.168 km/s
True Right ascension
08h 16m 17s
True Declination
0° 00' 00"
Sunlit
Object was in daylight at epoch
Visualization orbit readout
Latitude
Unknown
Longitude
Unknown
Altitude
Unknown
Speed
Unknown
Apparent Right ascension
Unknown
Apparent Declination
Unknown
Sunlit
N/A
Visualization observer readout
Local Sidereal Time
15:40:07
Azimuth
Unknown
Elevation
Unknown
Doppler factor
Unknown
Orbital elements
Apogee altitude
3,861.514 km
Perigee altitude
3,388.658 km
Semi-major axis
10,003.223 km
Eccentricity
0.02364
Inclination
87.2913°
RAAN
124.0726°
Arg. of periapsis
167.3366°
True anomaly
192.74806°
Mean anomaly
193.3562°
Eccentric anomaly
193.05041°
Mean motion
2.16937 °/min
Orbital period
165.95 mins
BSTAR
-0.0074289
Loading maneuver chart data...
Computing Atmospheric mass density...

Documentation

Showing up to 5 results
|